Regional Weather Roundup
Issued by NWS Albany, NY

Home | Current Version | Previous Version | Text Only | Print | Product List | Glossary On
Versions: 1 2 3 4 5 6 7 8 9 10 11 12 13 14 15 16 17 18 19 20 21 22 23 24 25 26 27
000
ASUS41 KALY 281110
RWRALY

NEW YORK STATE HOURLY WEATHER ROUNDUP
NATIONAL WEATHER SERVICE ALBANY NY
700 AM EDT FRI APR 28 2017

NOTE: "FAIR" INDICATES FEW OR NO CLOUDS BELOW 12,000 FEET WITH NO
SIGNIFICANT WEATHER AND/OR NO OBSTRUCTIONS TO VISIBILITY.

NYZ032-033-038>043-046>054-057>066-NYZ062>081-082-084-281200-
EAST


CITY           SKY/WX    TMP DP  RH WIND       PRES   REMARKS
ALBANY         LGT RAIN  61  57  87 S8        29.92R
GLENS FALLS    CLOUDY    62  57  83 SW7       29.91R
POUGHKEEPSIE   CLOUDY    60  58  92 CALM      29.93R FOG
MONTGOMERY     CLOUDY    61  58  90 CALM      29.92R
WHITE PLAINS   FOG       58  57  97 E3        29.93R VSB 1/2
ISLIP          LGT RAIN  56  56 100 CALM      29.92S FOG
NEW YORK CITY  FOG       56  55  97 NE8       29.92R VSB 1
CENTRAL PARK   CLOUDY    58  58 100 NE6       29.95R FOG
$$

NYZ005>009-017-018-044>046-055-056-281200-
CENTRAL


CITY           SKY/WX    TMP DP  RH WIND       PRES   REMARKS
FULTON         CLEAR     54  44  69 W10G21    29.96R
SYRACUSE       MOCLDY    54  45  71 W12       29.96R
ROME           CLOUDY    56  50  80 W6        29.97R
ELMIRA         CLEAR     57  49  74 W5        29.96R
BINGHAMTON     CLOUDY    54  52  93 N9        29.97R
MONTICELLO     CLOUDY    59  59 100 CALM      29.97R
$$

NYZ026>034-041>043-087-281200-
NORTH


CITY           SKY/WX    TMP DP  RH WIND       PRES   REMARKS
WATERTOWN      CLOUDY    50  47  89 SW13      29.95R
FORT DRUM      NOT AVBL
OGDENSBURG     PTSUNNY   55  51  88 SW12G17   29.89R
MASSENA        CLOUDY    58  53  84 SW21G28   29.88R
SARANAC LAKE   PTSUNNY   55  55 100 SW6       29.89R
PLATTSBURGH    MOSUNNY   62  59  90 S6        29.84S
$$

NYZ001>004-010>016-019>021-085-281200-
WEST


CITY           SKY/WX    TMP DP  RH WIND       PRES   REMARKS
NIAGARA FALLS  CLOUDY    49  42  77 SW10      29.95R
BUFFALO        MOCLDY    48  41  76 SW12      29.96R
DUNKIRK        CLOUDY    48  43  82 SW6       29.98R
JAMESTOWN      CLOUDY    46  39  76 SW10      29.99R
WELLSVILLE     PTCLDY    49  43  80 W6        29.99R
ROCHESTER      MOCLDY    51  43  74 SW10      29.96R
PENN YAN       CLEAR     55  44  66 SW8       29.98R
$$

             KEY
       WCI = WIND CHILL INDEX
       VSB = VISIBILITY
       HX  = HEAT INDEX
$$




USA.gov is the U.S. government's official web portal to all federal, state and local government web resources and services.